Miscellaneous Local Product
Issued by NWS North Platte, NE

Home | Current Version | Previous Version | Text Only | Print | Product List | Glossary On
Versions: 1 2 3 4 5 6 7 8 9 10 11 12 13 14 15 16 17 18 19 20 21 22 23 24 25 26 27 28 29 30 31 32 33 34 35 36 37 38 39 40 41 42 43 44 45 46 47 48 49 50
000
AXUS43 KLBF 311210
MISLBF


WESTERN AND NORTH CENTRAL NEBRASKA HOURLY WEATHER ROUNDUP
NATIONAL WEATHER SERVICE NORTH PLATTE NE
700 AM CDT FRI JUL 31 2015

***STATIONS NOT REPORTING VARIABLES SUCH AS SKY/WEATHER OR
PRESSURE ARE PROVIDED BY THE NEBRASKA DEPARTMENT OF
ROADS...RAWS...AND APRS NETWORKS...AND ARE NOT UNDER
NATIONAL WEATHER SERVICE QUALITY CONTROL***

...OBSERVATIONS IN AND NEAR THE EASTERN PANHANDLE OF NEBRASKA...

CITY           SKY/WX    TMP DP  RH WIND       PRES   REMARKS
PINE RIDGE     CLEAR     51  48  89 E3        30.23S
CHADRON        CLEAR     52  48  86 CALM      30.23R
ALLIANCE       CLEAR     53  51  93 W3        30.26R
SIDNEY         CLEAR     55  54  96 S10       30.30R
BIG SPRINGS      N/A     56  55  95 CALM        N/A
$$

...OBSERVATIONS IN NORTH CENTRAL NEBRASKA...

CITY           SKY/WX    TMP DP  RH WIND       PRES   REMARKS
VALENTINE      CLEAR     57  52  83 SW5       30.19S
THEDFORD       CLEAR     60  58  94 W3        30.23R
AINSWORTH      CLEAR     63  58  83 SW5       30.19R
O`NEILL        CLEAR     64  63  96 N3        30.17R
ORD            CLEAR     61  60  97 SW6       30.17R
BROKEN BOW     CLEAR     61  59  93 CALM      30.19R
SPRINGVIEW       N/A     56  53  90 CALM        N/A
CHAMBERS         N/A     63  61  92 CALM        N/A
EWING            N/A     63  62  95 CALM        N/A
$$

...OBSERVATIONS IN SOUTHWEST NEBRASKA AND FAR NORTHEAST COLORADO...

CITY           SKY/WX    TMP DP  RH WIND       PRES   REMARKS
WRAY           FAIR     N/A N/A N/A SW5       30.28S
IMPERIAL       CLEAR     58  56  93 SW3       30.25R
OGALLALA       CLEAR     58  57  99 CALM      30.26R FOG
NORTH PLATTE   CLEAR     61  59  93 NE3       30.22R
MCCOOK         CLEAR     64  62  93 CALM      30.22R
LEXINGTON      PTCLDY    64  62  94 CALM      30.21R
PAXTON           N/A     58  55  91 CALM        N/A
BRADY            N/A     62  59  91 CALM        N/A
CALLAWAY         N/A     59  58  97 S6          N/A
$$

...NORTH PLATTE AREA...

CITY           SKY/WX    TMP DP  RH WIND       PRES   REMARKS
AIRPORT        CLEAR     61  59  93 NE3       30.22R
DOWNTOWN         N/A     65  61  88 CALM        N/A
HILLCREST        N/A     64  61  90 CALM        N/A
$$

...SOME WEATHER OBSERVATIONS FROM AROUND THE REGION...

CITY           SKY/WX    TMP DP  RH WIND       PRES   REMARKS
DENVER         PTCLDY    61  55  81 W6        30.34R
LARAMIE        CLEAR     44  41  89 SW5       30.46R
CHEYENNE       CLEAR     55  50  83 W9        30.38R
SCOTTSBLUFF    CLEAR     59  57  93 S3        30.26S
RAPID CITY     CLEAR     58  48  69 NW8       30.22R
PIERRE         CLEAR     57  52  83 NE8       30.15R
WINNER         FAIR      62  54  74 CALM      30.17R
SIOUX FALLS    MOCLDY    61  59  93 CALM      30.14R
OMAHA          PTCLDY    72  64  76 SW5       30.13S
GRAND ISLAND   CLEAR     69  66  90 SW7       30.18R
KANSAS CITY    PTCLDY    64  60  87 SW5       30.17R
WICHITA        PTCLDY    72  67  84 N5        30.19R
HAYS           CLOUDY    64  57  77 CALM      30.21S VSB 1
LIBERAL        CLOUDY    72  66  83 CALM      30.23R
GOODLAND       FOG       57  57 100 N3        30.28S VSB 3/4
$$



USA.gov is the U.S. government's official web portal to all federal, state and local government web resources and services.